Regional Weather Roundup
Issued by NWS Bismarck, ND

Home | Current Version | Previous Version | Text Only | Print | Product List | Glossary On
Versions: 1 2 3 4 5 6 7 8 9 10 11 12 13 14 15 16 17 18 19 20 21 22 23 24 25 26 27 28 29 30 31 32 33 34 35 36 37 38 39 40 41 42 43 44 45 46 47 48 49 50
000
ASUS43 KBIS 251310
RWRBIS

NWR BROADCAST TEXT
NATIONAL WEATHER SERVICE BISMARCK ND
800 AM CDT TUE JUL 25 2017

NOTE: "FAIR" INDICATES FEW OR NO CLOUDS BELOW 12,000 FEET WITH NO
SIGNIFICANT WEATHER AND/OR OBSTRUCTIONS TO VISIBILITY.


CITY           SKY/WX    TMP DP  RH WIND       PRES   REMARKS
WILLISTON      CLOUDY    65  45  48 N3        29.98S
MINOT          CLOUDY    65  48  54 NW15      29.93R
MINOT AFB      CLOUDY    64  47  53 NW12      29.92R
BISMARCK       CLOUDY    69  66  90 S8        29.95R
DICKINSON      CLOUDY    65  52  62 N8        29.97R
GARRISON         N/A     68  54  60 N5        29.93R
HETTINGER ARPT LGT RAIN  65  57  75 NE17G24   29.94F
JAMESTOWN      PTSUNNY   67  65  93 SE5       29.87F
HAZEN          FAIR      66  59  77 CALM      29.95R
LINTON         FAIR     N/A N/A N/A N15G23    29.89F
MANDAN         PTSUNNY   66  66 100 SE8       29.95R FOG
STANLEY        FAIR      61  48  63 VRB6      29.98S
TIOGA          FAIR      61  45  55 NW7       29.99F
WATFORD CITY   FAIR      64  46  52 N6        29.98R
$$

CITY           SKY/WX    TMP DP  RH WIND       PRES   REMARKS
GRAND FORKS    CLOUDY    68  66  93 S6        29.87R
GRAND FORKS AF MOSUNNY   68  66  94 S9        29.87R
DEVILS LAKE    CLOUDY    70  66  88 NW3       29.88S
FARGO          SUNNY     71  65  81 S13       29.88R
CAVALIER       FAIR      68  66  94 S6        29.84S
GRAFTON        FAIR      68  68 100 S7        29.88R
GWINNER        SUNNY     68  66  94 CALM      29.87S
LANGDON        FAIR      66  66 100 SW3       29.87S
ROLLA            N/A     63  63 100 S5        29.90R
$$

CITY           SKY/WX    TMP DP  RH WIND       PRES   REMARKS
ABERDEEN       MOSUNNY   71  67  87 CALM      29.86R
MOBRIDGE       PTSUNNY   70  67  90 NE5       29.83F
BUFFALO          N/A     69  61  75 NE24      29.84F
RAPID CITY     CLOUDY    69  62  78 NW9       29.93R
GLASGOW        MOSUNNY   58  46  64 NW10      30.04R
SIDNEY         CLOUDY    65  44  46 N6        30.00R
WOLF POINT     CLOUDY    64  47  53 VRB3      30.02R
GLENDIVE       SUNNY     67  40  37 NE12      30.01R
MILES CITY     SUNNY     69  37  30 NE21      30.00R
BAKER          CLOUDY    69  47  45 NE18G26   30.00R
$$

CITY           SKY/WX    TMP DP  RH WIND       PRES   REMARKS
BILLINGS       PTSUNNY   65  38  36 NE12      30.10R
GREAT FALLS    PTCLDY    50  39  66 NW5       30.18R
REGINA         PTSUNNY   55  48  76 W15G21    29.92R
ESTEVAN        MOSUNNY   59  48  67 NW17      29.95R
$$




USA.gov is the U.S. government's official web portal to all federal, state and local government web resources and services.